Location: *
(40.7873°S, 98.7174°E)
Time: 00:43:20
(UTC+00:00)

ARIANE 6 FM1 Upper Stage - Pass Details

Date: 22 December 2025
Orbit: 522 x 610 km, 62.0° (Epoch: 20 January)

Event Time Altitude Azimuth Distance (km) Brightness Sun altitude
Rises 18:51:15 0° 231° (SW) 2,896 6.5 -22.7°
Reaches altitude 10° 18:54:04 10° 248° (WSW) 1,973 5.4 -22.5°
Enters shadow 18:54:53 13° 257° (WSW) 1,754 5.1 -22.4°
